This is the latest recevied weather packets stored in our database for station/object NY5V. If no packets are shown the sender has not sent any weather packets the latest 10 day(s).
| Time | Temp. | Humidity | Pressure | Rain* | Wind** | Luminosity | Snow |
|---|---|---|---|---|---|---|---|
| 1777084868 | 25° C | 84% | 1005 hPa | 0 mm | - | 0 W/m² | - |
| 1777084266 | 24.44° C | 85% | 1005.8 hPa | 0 mm | - | 0 W/m² | - |
| 1777083664 | 24.44° C | 85% | 1005.4 hPa | 0 mm | - | 0 W/m² | - |
| 1777083062 | 23.89° C | 86% | 1005.3 hPa | 0 mm | - | 0 W/m² | - |
| 1777082459 | 23.89° C | 87% | 1005.3 hPa | 0 mm | - | 0 W/m² | - |
| 1777081854 | 24.44° C | 85% | 1005.2 hPa | 0 mm | - | 0 W/m² | - |
| 1777081252 | 24.44° C | 83% | 1005.1 hPa | 0 mm | - | 0 W/m² | - |
| 1777080651 | 25° C | 82% | 1005.2 hPa | 0 mm | - | 0 W/m² | - |
| 1777080047 | 25° C | 81% | 1004.7 hPa | 0 mm | - | 0 W/m² | - |
| 1777079442 | 25.56° C | 79% | 1004.8 hPa | 0 mm | - | 0 W/m² | - |
| 1777078840 | 26.11° C | 77% | 1004.9 hPa | 0 mm | - | 1 W/m² | - |
| 1777078239 | 26.67° C | 76% | 1004.9 hPa | 0 mm | - | 3 W/m² | - |
| 1777077635 | 26.67° C | 74% | 1004.7 hPa | 0 mm | - | 6 W/m² | - |
| 1777077036 | 27.22° C | 74% | 1004.7 hPa | 0 mm | - | 9 W/m² | - |
| 1777076434 | 27.22° C | 73% | 1004.9 hPa | 0 mm | - | 12 W/m² | - |
| 1777075832 | 27.78° C | 73% | 1004.9 hPa | 0 mm | - | 14 W/m² | - |
| 1777075230 | 27.78° C | 71% | 1004.8 hPa | 0 mm | - | 17 W/m² | - |
| 1777074627 | 28.33° C | 70% | 1004.9 hPa | 0 mm | - | 19 W/m² | - |
| 1777074026 | 28.33° C | 70% | 1004.9 hPa | 0 mm | - | 21 W/m² | - |
| 1777073423 | 28.33° C | 70% | 1004.8 hPa | 0 mm | - | 23 W/m² | - |
| 1777072821 | 27.78° C | 72% | 1004.9 hPa | 0 mm | - | 26 W/m² | - |
| 1777072221 | 28.33° C | 72% | 1004.7 hPa | 0 mm | - | 26 W/m² | - |
| 1777071618 | 28.33° C | 71% | 1004.7 hPa | 0 mm | - | 24 W/m² | - |
| 1777071015 | 28.89° C | 69% | 1004.8 hPa | 0 mm | - | 37 W/m² | - |
| 1777070414 | 28.89° C | 69% | 1004.9 hPa | 0 mm | - | 59 W/m² | - |
* Rain latest hour (hover to see other rain measurements)
** Current wind speed in m/s (hover to see current wind gust speed)